This is the latest recevied weather packets stored in our database for station/object JS2QVS-13. If no packets are shown the sender has not sent any weather packets the latest 10 day(s).
| Time | Temp. | Humidity | Pressure | Rain* | Wind** | Luminosity | Snow |
|---|---|---|---|---|---|---|---|
| 1777712263 | 21.11° C | 52% | 1006 hPa | 0 mm | - | - | - |
| 1777711662 | 22.22° C | 50% | 1005.7 hPa | 0 mm | - | - | - |
| 1777711062 | 23.89° C | 34% | 1005.5 hPa | 0 mm | - | - | - |
| 1777710462 | 24.44° C | 34% | 1005.6 hPa | 0 mm | - | - | - |
| 1777709862 | 24.44° C | 33% | 1005.7 hPa | 0 mm | - | - | - |
| 1777709262 | 24.44° C | 32% | 1005.6 hPa | 0 mm | - | - | - |
| 1777708662 | 25° C | 32% | 1005.5 hPa | 0 mm | - | - | - |
| 1777708062 | 25° C | 31% | 1005.3 hPa | 0 mm | - | - | - |
| 1777707461 | 25° C | 32% | 1005.2 hPa | 0 mm | - | - | - |
| 1777706863 | 25° C | 32% | 1005.1 hPa | 0 mm | - | - | - |
| 1777706263 | 25° C | 31% | 1004.9 hPa | 0 mm | - | - | - |
| 1777705663 | 25° C | 31% | 1004.8 hPa | 0 mm | - | - | - |
| 1777705063 | 25.56° C | 30% | 1004.6 hPa | 0 mm | - | - | - |
| 1777704463 | 25.56° C | 29% | 1004.5 hPa | 0 mm | - | - | - |
| 1777703862 | 25.56° C | 29% | 1004.5 hPa | 0 mm | - | - | - |
| 1777703262 | 25.56° C | 29% | 1004.5 hPa | 0 mm | - | - | - |
| 1777702662 | 25.56° C | 30% | 1004.5 hPa | 0 mm | - | - | - |
| 1777702062 | 25.56° C | 29% | 1004.4 hPa | 0 mm | - | - | - |
| 1777701462 | 26.11° C | 28% | 1004.4 hPa | 0 mm | - | - | - |
| 1777700862 | 26.11° C | 29% | 1004.4 hPa | 0 mm | - | - | - |
| 1777700262 | 25.56° C | 30% | 1004.3 hPa | 0 mm | - | - | - |
| 1777699661 | 25.56° C | 30% | 1004.4 hPa | 0 mm | - | - | - |
| 1777699061 | 25.56° C | 30% | 1004.4 hPa | 0 mm | - | - | - |
| 1777698461 | 25.56° C | 30% | 1004.3 hPa | 0 mm | - | - | - |
| 1777697863 | 25° C | 30% | 1004.4 hPa | 0 mm | - | - | - |
* Rain latest hour (hover to see other rain measurements)
** Current wind speed in m/s (hover to see current wind gust speed)